Location: Austin, TX
(30.3000°N, 97.7500°W)
Time: 23:50:36
(UTC-05:00)

Daily predictions for brighter satellites

Satellite Brightness Start Highest point End
(mag) Time Altitude Azimuth Time Altitude Azimuth Time Altitude Azimuth
ISS -3.0 20:52:30 10° SSW 20:55:23 30° SE 20:58:16 10° ENE
COSMOS 2455 3.7 20:53:05 10° SSE 20:58:02 27° ESE 21:02:59 10° NE
COSMOS 2487 3.7 20:58:48 10° NNE 21:01:49 26° ENE 21:04:50 10° SE
Resurs 1-3 3.7 21:00:08 10° SSE 21:04:26 60° ENE 21:08:46 10° N
Cosmos 1833 Rocket 2.9 20:59:00 10° N 21:04:33 57° ENE 21:10:03 10° SSE
CZ-2D R/B 3.2 21:03:09 10° SSE 21:07:02 81° ENE 21:10:56 10° N
ALOS 4.5 21:08:57 10° SSW 21:12:50 26° W 21:16:43 10° NW
Cosmos 1937 Rocket 3.4 21:08:53 10° S 21:13:57 66° ESE 21:19:02 10° NNE
Cosmos 1470 Rocket 3.5 21:09:31 10° S 21:13:58 75° E 21:18:27 10° N
Cosmos 1892 3.5 21:10:37 10° SSE 21:14:03 31° E 21:17:27 10° NNE
Tiangong 2 4.1 21:15:20 10° N 21:15:55 10° N 21:16:30 10° NNE
Cosmos 2298 Rocket 4.0 21:12:09 10° S 21:17:26 79° ESE 21:22:43 10° NNE
Cosmos 2150 Rocket 4.0 21:12:10 10° S 21:17:32 69° ESE 21:22:50 10° NNE
Meteor 1-29 4.0 21:20:12 10° NE 21:23:13 27° E 21:25:32 14° SSE
OAO 2 Rocket 3.6 21:19:29 10° WNW 21:24:31 63° NNE 21:28:53 13° E
USA 186 1.3 21:22:40 10° S 21:25:07 76° W 21:27:47 10° NNW
Cosmos 1943 Rocket 3.5 21:24:18 14° SE 21:26:56 19° E 21:30:43 10° ENE
Tsikada Rocket 4.0 21:21:43 10° S 21:27:58 83° E 21:34:11 10° N
Lacrosse 5 rocket 1.3 21:25:50 10° SSW 21:29:13 41° ESE 21:32:36 10° NE
Cosmos 1939 Rocket 3.2 21:27:20 14° SSE 21:30:43 50° ENE 21:34:44 10° N
FUSE 4.5 21:31:18 10° WSW 21:36:14 39° S 21:39:20 20° ESE
Delta 168 3.4 21:33:35 10° WSW 21:37:07 42° S 21:39:53 21° ESE
Cosmos 1933 3.2 21:33:38 10° N 21:37:40 88° E 21:41:26 11° S
CZ-4B DEB 3.8 21:37:43 23° E 21:38:06 24° ENE 21:40:31 10° NNE
Cosmos 2369 Rocket 2.3 21:35:12 10° S 21:40:37 51° ESE 21:46:05 10° NNE
Cosmos 1346 Rocket 3.5 21:37:14 10° NNE 21:40:53 35° E 21:42:26 25° ESE
SL-19 R/B 4.4 21:36:01 13° SSE 21:40:58 68° ENE 21:46:52 10° N
Aurora 2 Rocket 3.5 21:37:48 10° W 21:42:35 34° SSW 21:44:23 23° SSE
Spot 2 Rocket 4.4 21:40:30 10° S 21:45:24 49° W 21:50:21 10° NNW
ERS-1 Rocket 4.0 21:43:21 22° ESE 21:45:30 30° ENE 21:49:50 10° NNE
Cosmos 2034 Rocket 4.3 21:39:50 10° N 21:45:59 70° W 21:52:04 10° S
EO 1 Delta rocket 4.4 21:50:39 23° SSE 21:53:55 57° ENE 22:00:09 10° N
Shenzhou-11 Module 4.5 21:53:13 10° NNW 21:55:09 15° NNE 21:56:30 12° NE
GPS 2-17 Rocket1 4.3 21:52:18 10° SW 21:55:42 22° S 21:55:59 22° S
Cosmos 1634 Rocket 4.2 21:50:01 10° N 21:56:07 50° E 21:59:34 25° SE
Helios 1B rocket 3.2 22:01:11 10° N 22:05:12 52° WNW 22:09:10 10° SSW
Resurs 01 Rocket 4.0 22:01:58 10° SW 22:05:17 21° W 22:08:38 10° NW
SAR-Lupe-4 3.5 22:06:47 55° ESE 22:07:18 63° ENE 22:10:50 10° N
USA 215 4.2 22:04:05 20° E 22:07:50 36° NE 22:13:42 10° NNW
Hubble Space Telescope 1.8 22:06:58 10° W 22:10:38 31° SSW 22:10:54 30° S
YAOGAN 6 2.9 22:10:30 34° S 22:11:55 64° W 22:15:36 10° NNW
Envisat 4.2 22:07:34 10° SSW 22:12:17 39° W 22:17:01 10° NNW
Meteor 2-3 Rocket 4.5 22:09:17 10° SSW 22:14:52 53° W 22:20:26 10° N
Cosmos 1782 3.8 22:11:55 10° NNE 22:14:58 31° ENE 22:14:58 31° ENE
ATLAS 5 CENTAUR R/B 4.3 22:11:49 10° N 22:15:37 17° NE 22:17:52 14° ENE
MetOp-B 4.3 22:17:32 41° ESE 22:18:59 54° ENE 22:24:11 10° N
Milstar 3 3.4 22:08:44 10° WSW 22:20:57 62° SSE 22:25:14 29° E
Cosmos 372 Rocket 3.9 22:22:59 45° SSE 22:24:20 62° ESE 22:29:23 10° NNE
Helios 1A 4.0 22:22:42 24° SSW 22:24:45 41° W 22:28:43 10° NNW
Cosmos 1125 Rocket 3.4 22:22:28 25° S 22:25:34 81° ESE 22:30:49 10° NNE
ARGOS 3.4 22:25:05 45° ESE 22:26:06 51° ENE 22:31:17 10° N
Aureole 3 3.3 22:26:41 57° NNW 22:26:41 57° NNW 22:29:14 10° N
GPS 2-04 Rocket1 3.8 22:24:19 10° WNW 22:27:39 33° N 22:28:27 29° NNE
SAR-Lupe-1 4.1 22:28:44 74° W 22:28:44 74° W 22:32:13 10° NNW
ISS -0.8 22:29:36 10° W 22:31:52 17° NW 22:34:09 10° N
Cosmos 2279 Rocket 4.1 22:26:12 10° N 22:32:21 58° E 22:33:42 48° SE
Delta 7925 Rocket 4.3 22:27:46 10° SW 22:31:21 34° S 22:31:21 34° S
Cosmos 2082 Rocket 4.5 22:31:03 10° WNW 22:34:47 18° W 22:38:32 10° SW
Cosmos 2142 Rocket 4.4 22:29:18 10° N 22:35:27 84° W 22:37:59 38° S
CENTAUR R/B 2.5 22:30:38 10° SW 22:36:23 74° WNW 22:42:55 10° NNE
Delta 2 Rocket 4.4 22:30:33 10° W 22:37:19 61° S 22:39:33 45° SE
Cosmos 1825 2.5 22:37:59 62° N 22:37:59 62° N 22:41:12 10° N
Cosmos 1408 3.1 22:40:28 58° NW 22:40:28 58° NW 22:43:41 10° N
SL-08 RB Rocket 4.0 22:41:06 55° ENE 22:41:06 55° ENE 22:45:24 10° N
OAO 3 Copernicus 4.3 22:38:28 10° WSW 22:43:30 81° NNW 22:44:25 59° NE
COSMOS 2455 4.3 22:38:16 10° SW 22:43:43 36° WNW 22:49:12 10° N
Terra 3.7 22:45:22 18° NE 22:45:22 18° NE 22:47:40 10° NNE
H-2A R/B 2.4 22:44:21 50° ENE 22:44:26 50° ENE 22:49:38 10° N
SPOT 5 2.9 22:49:17 73° ESE 22:49:37 76° ENE 22:54:58 10° N
Cosmos 1900 4.3 22:46:09 10° NNW 22:51:18 75° WSW 22:51:33 73° SW
Okean 1-7 3.4 22:48:25 10° NNW 22:52:43 60° W 22:52:43 60° W
Tiangong 2 3.6 22:50:42 10° NW 22:52:13 21° NNW 22:52:13 21° NNW
Cosmos 2344 3.6 22:52:23 10° SSW 23:00:09 81° WNW 23:08:13 10° NNE
Cosmos 1733 Rocket 4.3 23:06:59 35° N 23:06:59 35° N 23:09:34 10° N
Lacrosse 5 rocket 4.3 23:06:46 10° WNW 23:08:33 13° NW 23:10:19 10° NNW
OAO 2 Rocket 4.3 23:04:27 10° W 23:07:50 37° WSW 23:07:50 37° WSW
Cosmos 1943 Rocket 3.2 23:05:37 13° SW 23:10:15 43° WNW 23:15:33 10° N
Cosmos 158 Rocket 4.5 23:14:11 10° NNW 23:17:54 53° NNW 23:17:54 53° NNW
Meteor 1-27 Rocket 4.3 23:32:38 10° NNW 23:37:36 54° WNW 23:37:36 54° WNW
Cosmos 1092 Rocket 4.3 23:47:18 62° NW 23:47:18 62° NW 23:52:41 10° N
USA 215 3.7 23:51:26 50° WSW 23:51:26 50° WSW 23:56:59 10° NW
Lacrosse 4 Rocket 3.8 23:50:16 10° NNW 23:52:03 23° NNW 23:52:03 23° NNW
